Hourly Data Report for December 10, 2003

SHERBROOKE A
QUEBEC

45°26'00.000" N
71°41'00.000" W
241.40 m
7028124
71610
YSC

Download Data

Hourly Data (December 2003)
Hourly Data Report for December 10, 2003
TIME
LST
Temp Definition
°C
Dew Point Definition
°C
Rel Hum Definition
%
Precip. Amount Definition
mm

Wind Dir Definition
10's deg

Wind Spd Definition
km/h
Visibility Definition
km
Stn Press Definition
kPa
Hmdx Definition


Wind Chill Definition


Weather Definition


00:00 -18.7 -19.7 92   13 6 15.0 99.53   -24  
01:00 -18.2 -19.3 91   8 9 15.0 99.47   -25  
02:00 -19.2 -20.2 92   10 4 15.0 99.45   -23  
03:00 -17.9 -18.9 92   9 7 15.0 99.41   -23  
04:00 -19.1 -20.2 91   8 6 15.0 99.39   -24  
05:00 -18.4 -19.4 92   8 9 15.0 99.41   -25  
06:00 -19.7 -23.8 70   5 6 15.0 99.37   -25  
07:00 -17.6 -20.7 77   7 9 15.0 99.33   -24  
08:00 -17.1 -20.0 78   8 7 24.1 99.37   -22 Clear
09:00 -15.2 -17.5 83   8 7 24.1 99.35   -20 Clear
10:00 -12.8 -14.7 86   8 7 24.1 99.31   -17 Clear
11:00 -9.0 -13.1 72   9 6 24.1 99.24   -12 Mainly Clear
12:00 -6.0 -11.3 66   3 4 24.1 99.10   -8 Mostly Cloudy
13:00 -3.9 -9.4 66   6 4 24.1 99.02   -6 Mostly Cloudy
14:00 -2.1 -6.7 71   7 4 24.1 98.95   -4 Mostly Cloudy
15:00 -1.6 -5.4 75   9 7 24.1 98.91   -4 Mostly Cloudy
16:00 -0.5 -3.9 78   11 7 24.1 98.90   -3 Mostly Cloudy
17:00 0.7 -3.8 72   13 15 24.1 98.83     Mostly Cloudy
18:00 -0.3 -4.5 73   12 15 15.0 98.74   -5  
19:00 -0.2 -4.2 74   13 15 15.0 98.68   -5  
20:00 0.2 -3.3 77   13 15 15.0 98.60      
21:00 0.2 -3.2 78   14 11 15.0 98.53      
22:00 0.3 -3.0 78   14 15 15.0 98.53      
23:00 0.2 -2.8 80   13 15 15.0 98.47      

Notes on Data Quality.

Legend

  • E = Estimated
  • M = Missing
  • NA = Not Available*
  • [empty] = Indicates an unobserved value
Date modified: